Photometre #141[NE_1.6_Dp] Toulouse_MF AOT

File : 20200924_141.hum

24/09/2020,06:34:20,TEMP=16.9,BA=5.24,STAT.A=0.0,ExtBa=13.03
24/09/2020,06:37:54,TEMP=17.2,BA=5.24,STAT.A=0.0,ExtBa=12.94
24/09/2020,06:42:04,TEMP=17.2,BA=5.20,STAT.A=0.0,ExtBa=12.92
24/09/2020,06:47:01,TEMP=17.3,BA=5.20,STAT.A=0.0,ExtBa=12.93
24/09/2020,06:52:59,TEMP=17.3,BA=5.24,STAT.A=0.0,ExtBa=12.93
24/09/2020,07:00:21,TEMP=17.5,BA=5.20,STAT.A=0.0,ExtBa=12.95
24/09/2020,07:09:41,TEMP=17.6,BA=5.20,STAT.B=0.0,ExtBa=12.96
24/09/2020,07:14:09,TEMP=17.8,BA=5.16,STAT.A=0.0,ExtBa=12.93
24/09/2020,07:19:09,TEMP=17.8,BA=5.16,STAT.A=0.0,ExtBa=12.92
24/09/2020,07:20:56,TEMP=18.1,BA=5.16,STAT.b=0.0
24/09/2020,07:25:05,TEMP=17.9,BA=5.16,STAT.A=0.0,ExtBa=12.90
24/09/2020,07:27:01,TEMP=18.2,BA=5.16,STAT.b=0.0
24/09/2020,07:31:31,TEMP=18.1,BA=5.24,STAT.A=0.0,ExtBa=12.91
24/09/2020,07:38:37,TEMP=18.5,BA=5.24,STAT.C=0.0,ExtBa=12.93
24/09/2020,07:57:35,TEMP=20.9,BA=5.28,STAT.A=0.0,ExtBa=12.82
24/09/2020,07:59:58,TEMP=21.2,BA=5.28,STAT.A=0.0,ExtBa=12.83
24/09/2020,08:09:41,TEMP=21.1,BA=5.32,STAT.A=0.0,ExtBa=12.92
24/09/2020,08:24:48,TEMP=21.4,BA=5.36,STAT.A=0.0,ExtBa=12.93
24/09/2020,08:44:07,TEMP=22.5,BA=5.48,STAT.B=0.5,ExtBa=12.96
24/09/2020,08:55:46,TEMP=23.1,BA=5.32,STAT.F,ExtBa=12.82
24/09/2020,09:14:46,TEMP=24.3,BA=5.36,STAT.b=0.5
24/09/2020,09:15:25,TEMP=24.3,BA=5.36,STAT.b=0.5
24/09/2020,09:16:54,TEMP=24.2,BA=5.36,STAT.D=0.5,ExtBa=12.87
24/09/2020,09:31:54,TEMP=23.2,BA=5.48,STAT.D=0.5,ExtBa=12.91
24/09/2020,09:33:51,TEMP=23.4,BA=5.48,STAT.b=0.5
24/09/2020,09:47:12,TEMP=23.1,BA=5.48,STAT.F,ExtBa=12.90
24/09/2020,10:00:07,TEMP=24.0,BA=5.36,STAT.b=0.5
24/09/2020,10:04:07,TEMP=23.7,BA=5.36,STAT.D=0.5,ExtBa=12.87
24/09/2020,10:16:55,TEMP=23.3,BA=5.52,STAT.D=0.5,ExtBa=13.02
24/09/2020,10:31:55,TEMP=23.6,BA=5.52,STAT.D=0.5,ExtBa=13.20
24/09/2020,10:46:56,TEMP=24.0,BA=5.56,STAT.F,ExtBa=13.05
24/09/2020,11:01:55,TEMP=23.9,BA=5.52,STAT.D=0.5,ExtBa=12.99
24/09/2020,11:16:55,TEMP=23.0,BA=5.44,STAT.D=0.5,ExtBa=12.95
24/09/2020,11:31:55,TEMP=22.9,BA=5.44,STAT.D=0.5,ExtBa=12.93
24/09/2020,11:46:57,TEMP=23.2,BA=5.56,STAT.F,ExtBa=12.95
24/09/2020,12:01:55,TEMP=23.0,BA=5.48,STAT.D=0.5,ExtBa=12.94
24/09/2020,12:16:55,TEMP=22.4,BA=5.40,STAT.D=0.5,ExtBa=12.92
24/09/2020,12:31:55,TEMP=22.3,BA=5.44,STAT.D=0.5,ExtBa=12.92
24/09/2020,12:46:57,TEMP=22.1,BA=5.40,STAT.F,ExtBa=12.92
24/09/2020,13:01:55,TEMP=22.6,BA=5.64,STAT.D=0.5,ExtBa=13.01
24/09/2020,13:16:55,TEMP=22.9,BA=5.64,STAT.D=0.5,ExtBa=12.93
24/09/2020,13:31:55,TEMP=22.9,BA=5.64,STAT.D=0.5,ExtBa=12.92
24/09/2020,13:46:56,TEMP=22.5,BA=5.64,STAT.F,ExtBa=12.91
24/09/2020,14:01:55,TEMP=22.4,BA=5.48,STAT.D=0.5,ExtBa=12.91
24/09/2020,14:16:54,TEMP=22.0,BA=5.40,STAT.D=0.5,ExtBa=12.91
24/09/2020,14:31:54,TEMP=21.4,BA=5.36,STAT.D=0.0,ExtBa=12.91
24/09/2020,14:46:56,TEMP=21.0,BA=5.36,STAT.F,ExtBa=12.91
24/09/2020,14:49:45,TEMP=21.2,BA=5.36,STAT.B=0.0,ExtBa=12.86
24/09/2020,15:09:04,TEMP=21.2,BA=5.36,STAT.A=0.0,ExtBa=12.91
24/09/2020,15:24:11,TEMP=21.6,BA=5.40,STAT.A=0.0,ExtBa=12.91
24/09/2020,15:36:26,TEMP=21.4,BA=5.36,STAT.A=0.0,ExtBa=12.90
24/09/2020,15:46:37,TEMP=21.3,BA=5.32,STAT.A=0.0,ExtBa=12.90
24/09/2020,15:55:13,TEMP=21.4,BA=5.36,STAT.C=0.0,ExtBa=12.89
24/09/2020,16:02:36,TEMP=21.3,BA=5.32,STAT.A=0.0,ExtBa=12.88
24/09/2020,16:09:02,TEMP=21.1,BA=5.32,STAT.A=0.0,ExtBa=12.88
24/09/2020,16:14:41,TEMP=21.1,BA=5.28,STAT.A=0.0,ExtBa=12.86
24/09/2020,16:19:41,TEMP=21.2,BA=5.28,STAT.A=0.0,ExtBa=12.86
24/09/2020,16:24:09,TEMP=21.1,BA=5.28,STAT.B=0.0,ExtBa=12.86
24/09/2020,16:33:29,TEMP=20.8,BA=5.32,STAT.A=0.0,ExtBa=12.88
24/09/2020,16:40:51,TEMP=20.6,BA=5.32,STAT.A=0.0,ExtBa=12.87
24/09/2020,16:46:49,TEMP=20.8,BA=5.32,STAT.A=0.0,ExtBa=12.86
24/09/2020,16:48:55,TEMP=21.1,BA=5.32,STAT.b=0.0
24/09/2020,16:52:02,TEMP=21.0,BA=5.36,STAT.A=0.0,ExtBa=12.83
24/09/2020,16:53:59,TEMP=21.2,BA=5.36,STAT.b=0.0
24/09/2020,16:56:18,TEMP=20.9,BA=5.36,STAT.A=0.0,ExtBa=12.82
24/09/2020,16:58:16,TEMP=21.0,BA=5.36,STAT.b=0.0
24/09/2020,16:59:46,TEMP=20.8,BA=5.36,STAT.A=0.0,ExtBa=12.81
24/09/2020,17:01:45,TEMP=20.9,BA=5.28,STAT.b=0.0